SCOUT B R/B, 1502

Orbit data source: Space-Track

SCOUT B R/B, 1502 is space debris in LEO originally from a launch on Tue, 10 Aug 1965 UTC via an SCOUT B launch vehicle from the Wallops Island (WLPIS). Debris objects in space refer to the collection of defunct objects orbiting the Earth. Examples of debris include non-operational satellites, rocket bodies, and fragments generated from explosions, collisions, or faulty payload assembly.

Loading next visibility...
Identifier
1502, 1965-063B
Orbit
LEO
Last TLE update
2 days ago
Origin
Manufacturer
NASA LaRC
Mission
Spacecraft
Bus & Motor
ESEC, Unknown motor
Mass
47 kg wet, 4 kg dry
Launch date (UTC)
1965-08-10 (60 years ago)
Launch vehicle
SCOUT B
Launch site
Wallops Island (WLPIS)
Object type
Payload
Rocket body
Debris
Shape & HBR
Cyl, 1.5 m
Radar Cross Section
0.687 m², Medium (>0.1 m² and < 1m²)

Expand to show TLE details & history

TLE from 2 days ago
0 SCOUT B R/B
1 01502U 65063B   25118.54319946  .00000013  00000-0  30809-3 0  9993
2 01502  69.2295 160.8126 0781162 141.1905   7.4865 11.78588046569539
Epoch: 2025-04-28T13:02Z
Definitive object data (Epoch: 2025-04-28T13:02:12.433Z)
Latitude
27.95759°
Longitude
-83.04726°
Altitude
1,149.951 km
Speed
7.557 km/s
True Right ascension
21h 57m 02s
True Declination
27° 49' 22"
Sunlit
Object was in daylight at TLE epoch
Visualization TLE readout
Latitude
28.39434°
Longitude
-86.08531°
Altitude
1,151.563 km
Speed
7.555 km/s
Apparent Right ascension
00h 41m 44s
Apparent Declination
-4° 33' 33"
Sunlit
Object is in daylight
Visualization observer readout
Local Sidereal Time
17:24:22
Azimuth
80.885° E
Elevation
-17.714°
Doppler factor
1
Orbital elements
Apogee altitude
2,413.491 km
Perigee altitude
1,139.475 km
Semi-major axis
8,154.62 km
Eccentricity
0.0781162
Inclination
69.2295°
RAAN
160.8126°
Arg. of periapsis
141.1905°
True anomaly
8.77711°
Mean anomaly
7.4865°
Eccentric anomaly
8.11857°
Mean motion
2.94739 °/min
BSTAR
0.00030809
Orbital period
122.14 mins
Loading maneuver chart data...
Loading SW <> Apogee altitude chart data...
Loading historical data...
Loading historical data...
Loading historical data...
Loading historical data...
Loading historical data...
Loading historical data...
Loading historical data...

SCOUT B R/B Visibility forecast

Observer location: undefined°, undefined°

Span
Click to sort rows by Start time (UTC) header in descending order
Start Az.
Max El. time (UTC)
Max El. Az.
Max El.
End time (UTC)
End Az.
9 mins2025-04-30 11:40:27.655Z1.178° NNE2025-04-30 11:44:27.655Z36.74° NE18.041°2025-04-30 11:49:27.655Z84.382° E
12 mins2025-04-30 13:45:27.655Z331.595° NNW2025-04-30 13:51:27.655Z232.718° WSW44.548°2025-04-30 13:57:27.655Z161.68° S
7 mins2025-05-01 01:29:27.655Z112.784° SE2025-05-01 01:32:27.655Z96.206° ESE13.019°2025-05-01 01:36:27.655Z72.624° E
19 mins2025-05-01 03:26:27.655Z189.65° SSW2025-05-01 03:37:27.655Z97.64° ESE42.964°2025-05-01 03:45:27.655Z31.546° NE
15 mins2025-05-01 05:35:27.655Z253.562° W2025-05-01 05:43:27.655Z311.312° NW28.485°2025-05-01 05:50:27.655Z8.332° NNE
|